Orangeburg, SC

11:37 AM EST on January 19, 2018 (GMT -0500)
Orangeburg Municipal

Weather History for KOGB - October, 2010

Change the Weather History Date:

Sunday, October 31, 2010

  Actual Average Record
Temperature  
Mean Temperature 65 °F 60 °F  
Max Temperature 79 °F 73 °F 86 °F (2004)
Min Temperature 50 °F 49 °F 32 °F (1963)
Degree Days  
Heating Degree Days 0 6  
Month to date heating degree days 52 87  
Since 1 July heating degree days 52 90  
Cooling Degree Days 0 1  
Month to date cooling degree days 78 93  
Year to date cooling degree days 2506 2087  
Growing Degree Days 15 (Base 50)    
Moisture  
Dew Point 47 °F    
Average Humidity 63    
Maximum Humidity 100    
Minimum Humidity 21    
Precipitation  
Precipitation 0.00 in 0.07 in 1.72 in (1985)
Month to date precipitation 0.57 3.39  
Year to date precipitation 36.98 40.49  
Sea Level Pressure  
Sea Level Pressure 30.05 in    
Wind  
Wind Speed 6 mph (WSW)    
Max Wind Speed 17 mph    
Max Gust Speed 24 mph    
Visibility 10 miles    
Events      
T = Trace of Precipitation, MM = Missing Value Source: NWS Daily Summary

Daily Weather History Graph

Daily Weather History Graph

Search for Another Location

Airport or City:

Trip Planner

Search our weather history database for the weather conditions in past years. The results will help you decide how hot, cold, wet, or windy it might be!

Date:

Astronomy

Oct. 31, 2010 Rise Set
Actual Time 7:41 AM EDT 6:32 PM EDT
Civil Twilight 7:15 AM EDT 6:58 PM EDT
Nautical Twilight 6:46 AM EDT 7:27 PM EDT
Astronomical Twilight 6:17 AM EDT 7:56 PM EDT
Moon 1:25 AM EDT (10/31) 2:50 PM EDT (10/31)
Length of Visible Light 11h 42m
Length of Day
10h 51m
Last Quarter, 37% of the Moon is Illuminated
Oct 31
Last Quarter
Nov 6
New
Nov 13
First Quarter
Nov 21
Full
Nov 28
Last Quarter

Hourly Weather History & Observations

Time (EDT) Temp. Dew Point Humidity Pressure Visibility Wind Dir Wind Speed Gust Speed Precip Events Conditions
12:53 AM 51.1 °F 48.9 °F 92% 30.08 in 9.0 mi Calm Calm - N/A   Clear
1:53 AM 53.1 °F 51.1 °F 93% 30.06 in 10.0 mi SSW 3.5 mph - N/A   Clear
2:53 AM 52.0 °F 51.1 °F 97% 30.06 in 7.0 mi SW 3.5 mph - N/A   Clear
3:53 AM 54.0 °F 52.0 °F 93% 30.04 in 7.0 mi SW 5.8 mph - N/A   Clear
5:53 AM 55.0 °F 53.1 °F 93% 30.05 in 10.0 mi WSW 6.9 mph - 0.01 in   Clear
6:53 AM 54.0 °F 52.0 °F 93% 30.06 in 10.0 mi WSW 4.6 mph - N/A   Clear
8:53 AM 57.0 °F 53.1 °F 87% 30.09 in 10.0 mi Calm Calm - N/A   Clear
9:53 AM 61.0 °F 53.1 °F 75% 30.10 in 10.0 mi SW 4.6 mph - N/A   Clear
10:53 AM 68.0 °F 50.0 °F 52% 30.09 in 10.0 mi WSW 10.4 mph - N/A   Clear
11:53 AM 73.0 °F 48.0 °F 41% 30.07 in 10.0 mi West 12.7 mph 20.7 mph N/A   Clear
12:53 PM 75.0 °F 46.0 °F 36% 30.05 in 10.0 mi West 10.4 mph - N/A   Clear
1:53 PM 75.9 °F 43.0 °F 31% 30.01 in 10.0 mi West 10.4 mph - N/A   Clear
2:53 PM 78.1 °F 37.9 °F 24% 29.99 in 10.0 mi West 15.0 mph 21.9 mph N/A   Clear
3:53 PM 79.0 °F 36.0 °F 21% 29.98 in 10.0 mi West 12.7 mph 20.7 mph N/A   Clear
4:53 PM 78.1 °F 37.9 °F 24% 29.97 in 10.0 mi WSW 12.7 mph - N/A   Clear
5:53 PM 75.0 °F 41.0 °F 29% 29.98 in 10.0 mi WSW 8.1 mph - N/A   Clear
6:53 PM 66.0 °F 45.0 °F 47% 30.01 in 10.0 mi WSW 4.6 mph - N/A   Clear
7:53 PM 62.1 °F 46.0 °F 56% 30.04 in 10.0 mi Calm Calm - N/A   Clear
8:53 PM 57.9 °F 46.9 °F 67% 30.05 in 10.0 mi Calm Calm - N/A   Clear
9:53 PM 55.9 °F 46.9 °F 72% 30.07 in 10.0 mi Calm Calm - N/A   Clear
10:53 PM 53.1 °F 48.0 °F 83% 30.09 in 10.0 mi Calm Calm - N/A   Clear
11:53 PM 52.0 °F 46.9 °F 83% 30.10 in 10.0 mi Calm Calm - N/A   Clear